Terug naar catalogus

DELTA 1 DEB

ActiefLEO
NORAD 10234·DEBRIS·🇺🇸 United States

Gelanceerd Jul 14, 1977 vanaf Cape Canaveral Space Force Station

Loading…

Volgende Passages (komende 24 uur)

TLE

VersSource: Space-Track

Epoch: Sep 14, 2026, 11:25 UTC

1 10234U 77065BM  26257.47635586  .00005695  00000-0  36994-3 0  9990
2 10234  28.9447 322.5597 0267501  98.6978 264.4007 14.81091942494196

Volg DELTA 1 DEB in realtime met AllMySat

Download on the App Store